FW0403 Galveston TX US current weather conditions

sailwx.info

Wind from 133 at 2 knots gusting 5

Air temperature 20.6° C
Dewpoint 18.7° C

Last reported at 2019-Dec-05 23:10 UTC.
Time now 2019-Dec-06 00:13 UTC

Location: N 29°12' W 094°56'.
View on Google Maps.

See reports from other nearby stations

  
Tides and Currents Weather Stations Pressure Air Temp Water Temp Dewpoint Dewpoint Depression Visibility Wind Speed Wind Dir Waves Ship Positions
date/time (UTC)wind fromknots sea level pressurealtimeterstation pressurevisibilityair tempwater tempwave heightnotes
2019-Dec-05 23:10 133 2 gusting 5 20.6
2019-Dec-05 23:05 125 2 gusting 5 20.6
2019-Dec-05 22:59 143 2 gusting 5 20.6
2019-Dec-05 22:54 134 1 gusting 5 20.6
2019-Dec-05 22:49 170 1 gusting 5 20.6
2019-Dec-05 22:44 148 1 gusting 5 20.6
2019-Dec-05 22:39 114 1 gusting 5 20.6
2019-Dec-05 22:34 143 1 gusting 4 20.6
2019-Dec-05 22:28 161 1 gusting 4 20.6
2019-Dec-05 22:23 138 1 gusting 4 21.1
2019-Dec-05 22:18 167 1 gusting 5 21.1
2019-Dec-05 22:13 147 2 gusting 5 21.1
2019-Dec-05 22:08 148 2 gusting 6 21.1
2019-Dec-05 22:02 140 3 gusting 6 21.1
2019-Dec-05 21:57 140 3 gusting 6 21.1
2019-Dec-05 21:52 157 2 gusting 6 21.1
2019-Dec-05 21:47 160 2 gusting 6 21.1
2019-Dec-05 21:42 125 2 gusting 6 21.1
2019-Dec-05 21:37 138 2 gusting 6 21.1
2019-Dec-05 21:32 151 3 gusting 6 21.1
2019-Dec-05 21:26 133 2 gusting 6 21.1
2019-Dec-05 21:21 147 2 gusting 6 21.1
2019-Dec-05 21:16 161 2 gusting 6 21.1
2019-Dec-05 21:11 133 2 gusting 6 21.1
2019-Dec-05 21:06 128 3 gusting 6 21.1
2019-Dec-05 21:01 121 3 gusting 6 21.1
2019-Dec-05 20:56 128 3 gusting 6 21.1
2019-Dec-05 20:51 131 3 gusting 6 21.1
2019-Dec-05 20:45 140 3 gusting 5 21.1
2019-Dec-05 20:40 136 3 gusting 5 21.7
2019-Dec-05 20:35 134 2 gusting 5 21.7
2019-Dec-05 20:30 142 2 gusting 5 21.7
2019-Dec-05 20:25 128 2 gusting 5 21.7
2019-Dec-05 20:20 154 2 gusting 5 21.7
2019-Dec-05 20:14 134 3 gusting 5 21.7
2019-Dec-05 20:09 134 3 gusting 5 21.7
2019-Dec-05 20:04 134 3 gusting 5 22.2
2019-Dec-05 19:59 088 3 gusting 5 22.2
2019-Dec-05 19:54 110 3 gusting 5 22.2
2019-Dec-05 19:49 117 2 gusting 5 22.2
2019-Dec-05 19:44 143 2 gusting 4 22.2
2019-Dec-05 19:39 126 2 gusting 3 22.2
2019-Dec-05 19:34 113 2 gusting 3 22.2
2019-Dec-05 19:29 115 2 gusting 3 22.2
2019-Dec-05 19:24 108 2 gusting 3 22.8
2019-Dec-05 19:18 121 1 gusting 4 22.8
2019-Dec-05 19:13 121 2 gusting 4 22.8
2019-Dec-05 19:08 121 3 gusting 5 23.3
2019-Dec-05 19:03 113 2 gusting 5 23.3
2019-Dec-05 18:58 105 2 gusting 5 23.3
2019-Dec-05 18:53 109 2 gusting 5 23.3
2019-Dec-05 18:48 097 3 gusting 5 23.3
2019-Dec-05 18:43 119 2 gusting 5 23.3
2019-Dec-05 18:38 117 2 gusting 5 23.3
2019-Dec-05 18:32 116 3 gusting 5 23.3
2019-Dec-05 18:27 123 3 gusting 5 23.3
2019-Dec-05 18:22 125 3 gusting 5 23.3
2019-Dec-05 18:17 120 3 gusting 5 22.8
2019-Dec-05 18:11 114 3 gusting 5 22.8
2019-Dec-05 18:06 112 3 gusting 5 22.8
2019-Dec-05 18:01 133 3 gusting 5 22.2
2019-Dec-05 17:56 113 3 gusting 5 22.2
2019-Dec-05 17:51 113 2 gusting 5 22.2
2019-Dec-05 17:46 107 2 gusting 3 22.2
2019-Dec-05 17:40 130 2 gusting 4 22.8
2019-Dec-05 17:35 119 2 gusting 4 22.8
2019-Dec-05 17:30 135 2 gusting 5 22.8
2019-Dec-05 17:25 123 2 gusting 5 22.2
2019-Dec-05 17:20 117 3 gusting 5 22.2
2019-Dec-05 17:14 113 3 gusting 5 22.2
2019-Dec-05 17:09 119 2 gusting 4 22.2
2019-Dec-05 17:04 129 2 gusting 3 21.7
2019-Dec-05 16:59 119 2 gusting 5 22.2
2019-Dec-05 16:54 114 2 gusting 5 22.2
2019-Dec-05 16:49 117 3 gusting 5 21.7
2019-Dec-05 16:44 111 3 gusting 5 21.7
2019-Dec-05 16:39 117 3 gusting 6 21.7
2019-Dec-05 16:34 110 3 gusting 6 21.1
2019-Dec-05 16:29 117 3 gusting 6 21.1
2019-Dec-05 16:23 117 3 gusting 6 21.1
2019-Dec-05 16:19 112 3 gusting 5 21.1
2019-Dec-05 16:13 109 2 gusting 5 21.1
2019-Dec-05 16:08 101 2 gusting 5 21.1
2019-Dec-05 16:03 108 2 gusting 5 21.1
2019-Dec-05 15:58 122 3 gusting 5 20.6
2019-Dec-05 15:53 115 3 gusting 5 20.6
2019-Dec-05 15:48 117 2 gusting 5 20.6
2019-Dec-05 15:43 117 3 gusting 5 20.6
2019-Dec-05 15:37 123 3 gusting 5 20.0
2019-Dec-05 15:32 124 3 gusting 5 20.0
2019-Dec-05 15:27 134 3 gusting 5 20.0
2019-Dec-05 15:22 115 2 gusting 6 20.0
2019-Dec-05 15:17 118 3 gusting 6 20.0
2019-Dec-05 15:12 120 3 gusting 6 20.0
2019-Dec-05 15:07 123 3 gusting 6 20.0
2019-Dec-05 15:02 122 3 gusting 5 20.0
2019-Dec-05 14:57 108 2 gusting 5 19.4
2019-Dec-05 14:52 120 1 gusting 5 19.4
2019-Dec-05 14:46 117 1 gusting 3 19.4
2019-Dec-05 14:41 120 1 gusting 3 19.4
2019-Dec-05 14:36 108 1 gusting 5 19.4
2019-Dec-05 14:31 103 2 gusting 5 19.4
2019-Dec-05 14:26 108 2 gusting 5 18.9
2019-Dec-05 14:21 103 2 gusting 5 18.9
2019-Dec-05 14:16 096 3 gusting 5 18.9
2019-Dec-05 14:11 112 2 gusting 4 18.9
2019-Dec-05 14:05 106 2 gusting 4 18.9
2019-Dec-05 14:00 090 1 gusting 4 18.9
2019-Dec-05 13:55 113 18.9
2019-Dec-05 13:50 105 18.3
2019-Dec-05 13:45 104 18.3
2019-Dec-05 13:40 109 18.3
2019-Dec-05 13:35 111 0 gusting 6 18.3
2019-Dec-05 13:30 113 1 gusting 6 18.3
2019-Dec-05 13:24 115 2 gusting 6 18.3
2019-Dec-05 13:19 103 0 gusting 6 18.3
2019-Dec-05 13:14 116 18.3
2019-Dec-05 13:09 110 17.8
2019-Dec-05 13:04 084 17.8
2019-Dec-05 12:59 070 17.8
2019-Dec-05 12:54 084 17.8
2019-Dec-05 12:48 103 17.8
2019-Dec-05 12:43 104 17.8
2019-Dec-05 12:38 105 17.8
2019-Dec-05 12:33 106 17.8
2019-Dec-05 12:28 107 17.8
2019-Dec-05 12:23 109 17.8
2019-Dec-05 12:18 109 17.8
2019-Dec-05 12:12 097 17.8
2019-Dec-05 12:07 098 17.8
2019-Dec-05 12:02 101 17.8
2019-Dec-05 11:57 111 1 gusting 5 18.3
2019-Dec-05 11:52 117 2 gusting 5 17.8
2019-Dec-05 11:47 112 2 gusting 5 17.8
2019-Dec-05 11:42 096 2 gusting 5 17.8
2019-Dec-05 11:36 109 0 gusting 4 17.8
2019-Dec-05 11:31 115 17.8
2019-Dec-05 11:26 076 17.8
2019-Dec-05 11:21 107 0 17.8
2019-Dec-05 11:16 109 2 gusting 5 17.8
2019-Dec-05 11:11 114 1 gusting 4 17.8
2019-Dec-05 11:09 108 0 gusting 5 17.8
2019-Dec-05 11:03 109 17.8
2019-Dec-05 10:58 108 17.8
2019-Dec-05 10:53 109 17.8
2019-Dec-05 10:48 107 17.8
2019-Dec-05 10:44 105 17.8
2019-Dec-05 10:39 103 17.8
2019-Dec-05 10:34 088 17.8
2019-Dec-05 10:28 117 17.8
2019-Dec-05 10:23 117 17.8
2019-Dec-05 10:18 117 17.2
2019-Dec-05 10:13 117 17.2
2019-Dec-05 10:07 117 17.2
2019-Dec-05 10:02 117 17.2
2019-Dec-05 09:57 117 17.2
2019-Dec-05 09:52 117 17.2
2019-Dec-05 09:47 117 17.2
2019-Dec-05 09:41 117 17.8
2019-Dec-05 09:36 117 17.8
2019-Dec-05 09:31 117 17.8
2019-Dec-05 09:26 117 17.8
2019-Dec-05 09:21 110 17.8
2019-Dec-05 09:16 125 17.8
2019-Dec-05 09:11 125 17.8
2019-Dec-05 09:06 125 17.8
2019-Dec-05 09:01 125 17.8
2019-Dec-05 08:56 126 17.8
2019-Dec-05 08:51 132 17.8
2019-Dec-05 08:46 133 17.8
2019-Dec-05 08:41 133 17.8
2019-Dec-05 08:36 133 17.8
2019-Dec-05 08:30 133 17.8
2019-Dec-05 08:25 133 17.8
2019-Dec-05 08:20 133 17.8
2019-Dec-05 08:15 133 17.8
2019-Dec-05 08:09 133 17.8
2019-Dec-05 08:05 133 17.8
2019-Dec-05 07:59 133 17.8
2019-Dec-05 07:54 133 17.8
2019-Dec-05 07:49 133 18.3
2019-Dec-05 07:44 134 18.3
2019-Dec-05 07:39 138 18.3
2019-Dec-05 07:34 144 18.3
2019-Dec-05 07:28 134 18.3
2019-Dec-05 07:23 133 18.3
2019-Dec-05 07:18 130 18.3
2019-Dec-05 07:13 128 18.3
2019-Dec-05 07:08 136 18.3
2019-Dec-05 07:03 144 18.3
2019-Dec-05 06:58 143 18.3
2019-Dec-05 06:53 143 0 18.3
2019-Dec-05 06:48 148 0 gusting 3 18.3
2019-Dec-05 06:43 144 18.3
2019-Dec-05 06:38 151 18.3
2019-Dec-05 06:32 161 18.3
2019-Dec-05 06:27 159 0 gusting 2 18.3
2019-Dec-05 06:22 146 18.3
2019-Dec-05 06:17 177 18.3
2019-Dec-05 06:12 158 0 gusting 2 18.3
2019-Dec-05 06:07 157 0 gusting 2 18.3
2019-Dec-05 06:02 159 1 gusting 2 18.3
2019-Dec-05 05:57 157 1 gusting 2 18.3
2019-Dec-05 05:52 163 0 gusting 2 18.3
2019-Dec-05 05:47 168 18.3
2019-Dec-05 05:42 160 18.3
2019-Dec-05 05:36 163 18.3
2019-Dec-05 05:31 157 18.3
2019-Dec-05 05:26 169 18.3
2019-Dec-05 05:21 152 18.3
2019-Dec-05 05:16 153 18.3
2019-Dec-05 05:11 159 0 gusting 3 18.3
2019-Dec-05 05:06 148 1 gusting 3 18.3
2019-Dec-05 05:01 138 0 gusting 3 18.3
2019-Dec-05 04:55 144 0 gusting 3 18.3
2019-Dec-05 04:51 137 1 gusting 4 18.3
2019-Dec-05 04:46 136 2 gusting 4 18.3
2019-Dec-05 04:41 129 1 gusting 5 18.3
2019-Dec-05 04:35 133 2 gusting 5 18.3
2019-Dec-05 04:30 129 3 gusting 5 18.3
2019-Dec-05 04:25 115 3 gusting 5 18.3
2019-Dec-05 04:20 131 2 gusting 4 18.3
2019-Dec-05 04:15 131 1 gusting 4 18.3
2019-Dec-05 04:10 125 1 gusting 4 18.3
2019-Dec-05 04:00 112 2 gusting 4 18.3
2019-Dec-05 03:54 125 1 gusting 4 18.3
2019-Dec-05 03:49 126 1 gusting 5 17.8
2019-Dec-05 03:44 123 2 gusting 5 17.8
2019-Dec-05 03:39 123 3 gusting 5 17.8
2019-Dec-05 03:34 115 2 gusting 5 17.8
2019-Dec-05 03:28 121 1 gusting 4 17.8
2019-Dec-05 03:23 111 1 gusting 4 17.8
2019-Dec-05 03:18 114 1 gusting 4 17.8
2019-Dec-05 03:13 103 1 gusting 4 17.8
2019-Dec-05 03:08 120 1 gusting 3 17.8
2019-Dec-05 03:03 109 17.8
2019-Dec-05 02:58 098 17.8
2019-Dec-05 02:53 111 17.8
2019-Dec-05 02:47 106 17.8
2019-Dec-05 02:42 123 17.8
2019-Dec-05 02:37 123 17.8
2019-Dec-05 02:32 123 17.8
2019-Dec-05 02:27 126 17.8
2019-Dec-05 02:22 126 17.8
2019-Dec-05 02:16 133 17.8
2019-Dec-05 02:11 132 17.8
2019-Dec-05 02:06 129 18.3
2019-Dec-05 02:01 129 17.8
2019-Dec-05 01:56 129 18.3
2019-Dec-05 01:51 129 18.3
2019-Dec-05 01:46 130 18.3
2019-Dec-05 01:41 130 18.3
2019-Dec-05 01:36 130 18.3
2019-Dec-05 01:31 130 18.3
2019-Dec-05 01:25 130 18.3
2019-Dec-05 01:20 130 18.3
2019-Dec-05 01:15 130 18.3
2019-Dec-05 01:10 130 18.3
2019-Dec-05 01:05 130 18.3
2019-Dec-05 01:00 130 18.3
2019-Dec-05 00:55 130 18.3
2019-Dec-05 00:50 130 18.3
2019-Dec-05 00:44 130 18.3
2019-Dec-05 00:39 130 18.3
2019-Dec-05 00:34 123 18.3
2019-Dec-05 00:30 117 18.3
2019-Dec-05 00:24 121 18.3
2019-Dec-05 00:19 118 18.3
2019-Dec-05 00:15 117 18.9
2019-Dec-05 00:09 119 18.9
2019-Dec-05 00:04 117 18.9
2019-Dec-04 23:59 118 18.9
2019-Dec-04 23:54 118 18.9
2019-Dec-04 23:49 119 18.9
2019-Dec-04 23:44 119 19.4
2019-Dec-04 23:39 119 19.4
2019-Dec-04 23:34 119 19.4
2019-Dec-04 23:29 119 19.4
2019-Dec-04 23:24 119 19.4
2019-Dec-04 23:18 119 19.4
2019-Dec-04 23:13 119 20.0
2019-Dec-04 23:08 119 20.0
2019-Dec-04 23:03 119 20.0
2019-Dec-04 22:58 119 20.0
2019-Dec-04 22:53 119 20.0
2019-Dec-04 22:47 118 20.0
2019-Dec-04 22:42 118 20.0
2019-Dec-04 22:37 118 20.0
2019-Dec-04 22:32 118 20.0
2019-Dec-04 22:27 117 0 gusting 2 20.0
2019-Dec-04 22:22 113 0 gusting 2 20.0
2019-Dec-04 22:17 115 0 gusting 2 20.6
2019-Dec-04 22:12 107 0 gusting 2 20.6
2019-Dec-04 22:07 122 0 gusting 2 20.6
2019-Dec-04 22:02 120 0 gusting 3 20.6
2019-Dec-04 21:57 136 0 gusting 3 21.1
2019-Dec-04 21:52 131 1 gusting 3 21.1
2019-Dec-04 21:47 115 1 gusting 3 21.1
2019-Dec-04 21:42 127 1 gusting 4 21.7
2019-Dec-04 21:37 117 1 gusting 4 21.7
2019-Dec-04 21:32 130 1 gusting 4 21.7
2019-Dec-04 21:26 125 1 gusting 4 21.7
2019-Dec-04 21:21 133 1 gusting 3 22.2
2019-Dec-04 21:16 125 1 gusting 2 22.2
2019-Dec-04 21:11 102 1 gusting 2 22.8
2019-Dec-04 21:05 112 1 gusting 3 22.8
2019-Dec-04 21:00 119 1 gusting 3 22.8
2019-Dec-04 20:55 119 1 gusting 3 22.8
2019-Dec-04 20:50 114 0 gusting 3 22.8
2019-Dec-04 20:45 107 0 gusting 3 22.8
2019-Dec-04 20:40 117 1 gusting 3 22.2
2019-Dec-04 20:35 103 1 gusting 3 22.2
2019-Dec-04 20:30 100 1 gusting 3 22.2
2019-Dec-04 20:25 095 1 gusting 4 22.2
2019-Dec-04 20:20 088 1 gusting 4 22.2
2019-Dec-04 20:14 103 1 gusting 4 22.2
2019-Dec-04 20:09 109 1 gusting 4 22.2
2019-Dec-04 20:04 103 0 gusting 4 22.8
2019-Dec-04 19:59 146 1 gusting 4 22.2
2019-Dec-04 19:54 107 1 gusting 4 22.2
2019-Dec-04 19:49 012 0 gusting 2 22.2
2019-Dec-04 19:44 102 0 gusting 2 21.7
2019-Dec-04 19:39 096 1 gusting 3 21.7
2019-Dec-04 19:34 121 1 gusting 3 21.7
2019-Dec-04 19:29 113 1 gusting 3 21.7
2019-Dec-04 19:23 105 1 gusting 3 21.7
2019-Dec-04 19:18 109 1 gusting 3 22.2
2019-Dec-04 19:13 104 1 gusting 3 22.2
2019-Dec-04 19:08 119 1 gusting 3 22.2
2019-Dec-04 19:03 121 0 gusting 3 22.2
2019-Dec-04 18:58 111 0 gusting 3 22.2
2019-Dec-04 18:53 116 0 gusting 3 21.7
2019-Dec-04 18:48 113 0 gusting 2 21.7
2019-Dec-04 18:43 115 1 gusting 4 21.1
2019-Dec-04 18:38 115 2 gusting 4 21.1
2019-Dec-04 18:33 098 2 gusting 4 21.7
2019-Dec-04 18:28 108 2 gusting 4 21.7
2019-Dec-04 18:22 094 1 gusting 5 22.2
2019-Dec-04 18:17 072 1 gusting 5 21.7
2019-Dec-04 18:12 050 1 gusting 5 21.7
2019-Dec-04 18:07 076 2 gusting 5 21.1
2019-Dec-04 18:02 024 3 gusting 6 21.1
2019-Dec-04 17:57 050 3 gusting 6 21.1
2019-Dec-04 17:52 021 2 gusting 6 21.1
2019-Dec-04 17:47 059 2 gusting 6 20.6
2019-Dec-04 17:42 031 2 gusting 6 20.6
2019-Dec-04 17:37 039 2 gusting 7 20.6
2019-Dec-04 17:31 044 3 gusting 7 20.0
2019-Dec-04 17:26 069 4 gusting 7 20.0
2019-Dec-04 17:21 032 3 gusting 7 19.4
2019-Dec-04 17:16 024 2 gusting 10 19.4
2019-Dec-04 17:11 059 3 gusting 10 19.4
2019-Dec-04 17:06 025 3 gusting 10 19.4
2019-Dec-04 17:01 028 2 gusting 10 19.4
2019-Dec-04 16:55 090 3 gusting 7 18.9
2019-Dec-04 16:50 348 3 gusting 8 18.9
2019-Dec-04 16:45 024 3 gusting 8 18.9
2019-Dec-04 16:40 044 3 gusting 8 18.3
2019-Dec-04 16:35 039 2 gusting 8 18.9
2019-Dec-04 16:30 044 3 gusting 8 18.3
2019-Dec-04 16:24 035 3 gusting 8 18.3
2019-Dec-04 16:19 002 3 gusting 7 18.3
2019-Dec-04 16:14 053 2 gusting 7 18.3
2019-Dec-04 16:08 047 2 gusting 7 18.3
2019-Dec-04 16:03 046 3 gusting 7 18.3
2019-Dec-04 15:58 078 4 gusting 8 17.8
2019-Dec-04 15:53 023 5 gusting 8 17.8
2019-Dec-04 15:48 032 4 gusting 10 17.8
2019-Dec-04 15:43 025 5 gusting 10 17.8
2019-Dec-04 15:38 031 5 gusting 11 17.8
2019-Dec-04 15:33 034 5 gusting 11 17.8
2019-Dec-04 15:28 002 5 gusting 11 17.8
2019-Dec-04 15:23 030 4 gusting 11 17.8
2019-Dec-04 15:17 348 4 gusting 8 17.8
2019-Dec-04 15:12 357 4 gusting 8 17.8
2019-Dec-04 15:07 087 3 gusting 8 17.8
2019-Dec-04 15:02 350 4 gusting 8 17.2
2019-Dec-04 14:56 342 3 gusting 8 17.2
2019-Dec-04 14:51 007 2 gusting 6 17.2
2019-Dec-04 14:46 026 2 gusting 6 17.2
2019-Dec-04 14:41 348 2 gusting 5 16.7
2019-Dec-04 14:36 357 2 gusting 5 16.7
2019-Dec-04 14:31 002 2 gusting 5 16.7
2019-Dec-04 14:25 349 2 gusting 5 16.1
2019-Dec-04 14:20 002 2 gusting 5 16.1
2019-Dec-04 14:15 020 2 gusting 5 16.1
2019-Dec-04 14:10 007 2 gusting 5 16.1
2019-Dec-04 14:05 017 2 gusting 5 15.6
2019-Dec-04 14:00 357 2 gusting 5 15.6
2019-Dec-04 13:55 344 2 gusting 5 15.6
2019-Dec-04 13:49 007 2 gusting 5 15.6
2019-Dec-04 13:44 007 2 gusting 5 15.0
2019-Dec-04 13:39 335 1 gusting 5 15.0
2019-Dec-04 13:34 311 2 gusting 6 15.0
2019-Dec-04 13:29 353 2 gusting 6 15.0
2019-Dec-04 13:24 351 3 gusting 6 15.0
2019-Dec-04 13:19 342 2 gusting 6 15.0
2019-Dec-04 13:13 323 2 gusting 5 14.4
2019-Dec-04 13:08 357 1 gusting 4 14.4
2019-Dec-04 13:03 351 1 gusting 4 14.4
2019-Dec-04 12:58 342 0 gusting 3 14.4
2019-Dec-04 12:53 341 0 gusting 2 14.4
2019-Dec-04 12:48 348 14.4
2019-Dec-04 12:43 342 14.4
2019-Dec-04 12:38 012 14.4
2019-Dec-04 12:33 346 14.4
2019-Dec-04 12:28 338 14.4
2019-Dec-04 12:23 335 14.4
2019-Dec-04 12:18 348 14.4
2019-Dec-04 12:12 343 14.4
2019-Dec-04 12:08 346 14.4
2019-Dec-04 12:02 344 14.4
2019-Dec-04 11:57 332 14.4
2019-Dec-04 11:52 323 14.4
2019-Dec-04 11:47 321 14.4
2019-Dec-04 11:42 325 14.4
2019-Dec-04 11:37 332 14.4
2019-Dec-04 11:32 335 14.4
2019-Dec-04 11:27 335 14.4
2019-Dec-04 11:22 337 14.4
2019-Dec-04 11:16 340 14.4
2019-Dec-04 11:11 341 14.4
2019-Dec-04 11:06 341 14.4
2019-Dec-04 11:01 340 14.4
2019-Dec-04 10:56 341 14.4
2019-Dec-04 10:51 343 14.4
2019-Dec-04 10:46 344 14.4
2019-Dec-04 10:40 343 14.4
2019-Dec-04 10:36 335 14.4
2019-Dec-04 10:30 325 14.4
2019-Dec-04 10:25 325 14.4
2019-Dec-04 10:20 323 14.4
2019-Dec-04 10:15 352 14.4
2019-Dec-04 10:10 350 14.4
2019-Dec-04 10:05 296 14.4
2019-Dec-04 10:00 291 14.4
2019-Dec-04 09:55 290 14.4
2019-Dec-04 09:50 288 14.4
2019-Dec-04 09:45 287 14.4
2019-Dec-04 09:40 286 14.4
2019-Dec-04 09:34 257 14.4
2019-Dec-04 09:30 256 14.4
2019-Dec-04 09:24 256 14.4
2019-Dec-04 09:19 256 14.4
2019-Dec-04 09:14 256 15.0
2019-Dec-04 09:09 256 15.0
2019-Dec-04 09:04 256 15.0
2019-Dec-04 08:59 256 15.0
2019-Dec-04 08:54 256 15.0
2019-Dec-04 08:48 256 15.0
2019-Dec-04 08:43 256 15.0
2019-Dec-04 08:38 256 15.0
2019-Dec-04 08:33 256 15.0
2019-Dec-04 08:28 256 15.0
2019-Dec-04 08:23 256 15.0
2019-Dec-04 08:18 256 15.0
2019-Dec-04 08:13 256 15.6
2019-Dec-04 08:08 256 15.6
2019-Dec-04 08:03 256 15.6
2019-Dec-04 07:58 256 15.6
2019-Dec-04 07:53 256 15.6
2019-Dec-04 07:47 256 15.6
2019-Dec-04 07:42 256 15.6
2019-Dec-04 07:37 256 16.1
2019-Dec-04 07:32 256 16.1
2019-Dec-04 07:27 256 16.1
2019-Dec-04 07:21 256 16.1
2019-Dec-04 07:16 256 16.1
2019-Dec-04 07:11 256 16.1
2019-Dec-04 07:06 256 16.1
2019-Dec-04 07:01 256 16.1
2019-Dec-04 06:56 256 16.1
2019-Dec-04 06:51 256 16.1
2019-Dec-04 06:45 256 16.1
2019-Dec-04 06:40 256 16.1
2019-Dec-04 06:35 256 16.1
2019-Dec-04 06:30 256 16.1
2019-Dec-04 06:25 256 16.1
2019-Dec-04 06:20 256 16.1
2019-Dec-04 06:15 256 16.1
2019-Dec-04 06:10 256 16.1
2019-Dec-04 06:05 256 16.7
2019-Dec-04 06:00 256 16.7
2019-Dec-04 05:55 256 16.7
2019-Dec-04 05:50 256 16.7
2019-Dec-04 05:45 256 16.7
2019-Dec-04 05:40 256 16.7
2019-Dec-04 05:35 256 16.7
2019-Dec-04 05:30 256 17.2
2019-Dec-04 05:24 256 17.2
2019-Dec-04 05:19 256 17.2
2019-Dec-04 05:14 256 17.2
2019-Dec-04 05:09 256 17.2
2019-Dec-04 05:04 248 17.2
2019-Dec-04 04:59 247 17.2
2019-Dec-04 04:54 245 17.2
2019-Dec-04 04:49 244 17.8
2019-Dec-04 04:44 244 17.8
2019-Dec-04 04:38 244 17.8
2019-Dec-04 04:33 244 17.8
2019-Dec-04 04:28 243 17.8
2019-Dec-04 04:23 243 17.8
2019-Dec-04 04:18 242 17.8
2019-Dec-04 04:13 242 17.8
2019-Dec-04 04:08 242 17.8
2019-Dec-04 04:02 241 17.8
2019-Dec-04 03:57 241 17.8
2019-Dec-04 03:52 240 17.8
2019-Dec-04 03:47 242 17.8
2019-Dec-04 03:42 241 17.8
2019-Dec-04 03:36 246 17.8
2019-Dec-04 03:31 246 17.8
2019-Dec-04 03:26 246 17.8
2019-Dec-04 03:20 247 17.8
2019-Dec-04 03:16 247 17.8
2019-Dec-04 03:11 247 17.8
2019-Dec-04 03:06 248 17.8
2019-Dec-04 03:01 248 17.8
2019-Dec-04 02:56 248 17.8
2019-Dec-04 02:50 246 17.8
2019-Dec-04 02:45 246 18.3
2019-Dec-04 02:40 243 18.3
2019-Dec-04 02:35 256 0 gusting 3 18.3
2019-Dec-04 02:30 228 0 gusting 3 18.3
2019-Dec-04 02:25 236 1 gusting 3 18.3
2019-Dec-04 02:20 248 1 gusting 4 18.3
2019-Dec-04 02:15 242 1 gusting 4 18.3
2019-Dec-04 02:10 234 1 gusting 4 18.3
2019-Dec-04 02:05 228 1 gusting 4 18.3
2019-Dec-04 01:59 255 1 gusting 4 18.3
2019-Dec-04 01:54 235 0 gusting 4 18.3
2019-Dec-04 01:49 237 1 gusting 4 18.3
2019-Dec-04 01:44 242 1 gusting 4 18.3
2019-Dec-04 01:38 240 1 gusting 4 18.3
2019-Dec-04 01:33 223 1 gusting 4 18.3
2019-Dec-04 01:28 227 2 gusting 4 18.3
2019-Dec-04 01:23 231 2 gusting 4 18.3
2019-Dec-04 01:18 220 2 gusting 4 18.3
2019-Dec-04 01:13 231 2 gusting 4 18.3
2019-Dec-04 01:07 229 1 gusting 5 18.3
2019-Dec-04 01:02 206 2 gusting 5 18.3
2019-Dec-04 00:57 225 2 gusting 5 18.3
2019-Dec-04 00:52 207 1 gusting 6 18.9
2019-Dec-04 00:47 213 2 gusting 6 18.9
2019-Dec-04 00:42 209 3 gusting 6 18.9
2019-Dec-04 00:37 203 4 gusting 6 18.9
2019-Dec-04 00:32 197 3 gusting 6 18.9
2019-Dec-04 00:27 205 2 gusting 6 18.9
2019-Dec-04 00:22 207 2 gusting 5 18.9
2019-Dec-04 00:17 204 2 gusting 5 18.9
2019-Dec-04 00:11 211 3 gusting 8 18.9
2019-Dec-04 00:06 211 3 gusting 8 18.9
2019-Dec-04 00:01 197 4 gusting 8 18.9